7 * 24
多渠道服务支持
STARLINK-36181(NORAD编号68047)是美国SpaceX公司星链(Starlink)卫星互联网星座中的一员,属于低地球轨道通信卫星。该卫星依托猎鹰9号火箭发射,纳入SpaceX全球卫星互联网组网,为偏远地区、移动载体提供宽带互联网接入服务。2026年SpaceX启动整体轨道调整计划,将数千颗星链卫星轨道高度从550公里降至480公里,该卫星大概率参与此次降轨优化,降低碰撞风险,缩短残骸再入大气层时间。作为星链万颗星座扩容后的组成部分,它助力星链完成中低纬度或极地区域覆盖补网,支撑星链在民航、科考等场景的商业化服务拓展。
美国
(US)
| 数据来源 | 国际轨道数据 |
| 星历时间: | 2026-06-13T02:21:40+0800 11小时前 查看轨道信息 |
| 半长轴: | 6840.789km |
| 偏心率: | 0.0001057 |
| 轨道倾角: | 53.160° |
| 近地点辐角 | 96.740° |
| 升交点赤经 | 327.626° |
| 平近点角 | 263.372° |
| 近地点: | 461.928km |
| 远地点: | 463.376km |
| 周期: | 93.847分钟 |
| 每日圈数: | 15.344175 |